Regional Weather Roundup
Issued by NWS

Home | Current Version | Previous Version | Text Only | Print | Product List | Glossary On
Versions: 1 2 3 4 5 6 7 8 9 10 11 12 13 14 15 16 17 18 19 20 21 22 23 24 25 26 27 28 29 30 31 32 33 34 35 36 37 38 39 40 41 42 43 44 45 46 47 48 49 50
000
ASUS43 KDTX 241410
RWRMI
MICHIGAN HOURLY REGIONAL WEATHER ROUNDUP
NATIONAL WEATHER SERVICE DETROIT/PONTIAC MI
ISSUED BY NATIONAL WEATHER SERVICE GRAND RAPIDS MI
1000 AM EDT MON JUL 24 2017

NOTE: "FAIR" INDICATES FEW OR NO CLOUDS BELOW 12,000 FEET WITH NO
SIGNIFICANT WEATHER AND/OR OBSTRUCTION TO VISIBILITY.

MIZ047>049-052>055-059>063-066>070-074>076-081>083-241500-
SOUTHEAST LOWER MICHIGAN

CITY           SKY/WX    TMP DP  RH WIND       PRES   REMARKS
ADRIAN         CLOUDY    66  58  75 N12       29.95R
ALMA           CLOUDY    66  54  66 NW14G22   29.99R
ANN ARBOR      PTSUNNY   68  58  70 NW16      29.94R
BAD AXE        CLOUDY    61  58  92 N12G17    29.93R
DETROIT CITY   CLOUDY    68  57  68 NW14      29.91R
DETROIT        CLOUDY    68  58  70 N9G20     29.92R
FLINT          CLOUDY    63  56  78 N13       29.95R
GROSSE ILE     CLOUDY    68  57  68 NW13      29.90R
HILLSDALE      CLOUDY    63  55  77 NW13      29.96R
HOWELL         CLOUDY    63  56  77 NW9G17    29.96R

CITY           SKY/WX    TMP DP  RH WIND       PRES   REMARKS
JACKSON        CLOUDY    63  55  75 N12       29.97R
LANSING        CLOUDY    63  55  75 N7        29.98R
MASON          CLOUDY    62  56  80 N9G17     29.98R
MONROE         CLOUDY    66  58  75 N13       29.92R
MT. CLEMENS    PTSUNNY   66  59  79 NW15      29.90R
PONTIAC        CLOUDY    64  58  80 NW17G23   29.92R
PORT HOPE        N/A     63  59  87 N13G25    29.91R
PORT HURON     LGT RAIN  64  59  82 NW7       29.90R
TRI CITIES     PTSUNNY   65  57  75 N16       29.97R
YPSILANTI      CLOUDY    68  60  75 N13       29.94R
$$
MIZ043>046-050>051-056>058-064>065-071>073-077>080-241500-
SOUTHWEST LOWER MICHIGAN

CITY           SKY/WX    TMP DP  RH WIND       PRES   REMARKS
BATTLE CREEK   CLOUDY    65  57  75 N13       29.99R
BENTON HARBOR  CLOUDY    67  58  72 VRB6      29.99R
BIG RAPIDS     PTSUNNY   64  53  68 N7G17     30.00S
COLDWATER      CLOUDY    65  61  87 N10       29.97R
HOLLAND        CLOUDY    66  55  67 VRB6      30.01R
GRAND RAPIDS   PTSUNNY   67  55  65 N15       30.00R
KALAMAZOO      CLOUDY    67  56  67 N9        29.99R
MARSHALL       CLOUDY    63  58  82 N6        29.98R
MOUNT PLEASANT CLOUDY    64  53  68 N9        29.98S
MUSKEGON       PTSUNNY   69  55  60 N12G20    30.02R
STURGIS        CLOUDY    64  61  88 N8        29.97R
$$
MIZ016>042-241500-
NORTHERN LOWER MICHIGAN

CITY           SKY/WX    TMP DP  RH WIND       PRES   REMARKS
ALPENA         MOSUNNY   66  58  75 N14       30.00R
BEAVER ISLAND  SUNNY     65  54  67 N10       30.05S
BELLAIRE       SUNNY     66  52  59 N7        30.03S
CADILLAC       MOSUNNY   66  53  64 N8G18     30.02R
CHARLEVOIX     SUNNY     65  57  75 N13       30.07S
GAYLORD        SUNNY     63  52  67 N8G17     30.03R
HOUGHTON LAKE  PTSUNNY   62  53  72 N17G25    30.01R
MANISTEE       MOSUNNY   66  55  67 N15       30.03R
OSCODA         CLOUDY    60  57  91 N12       29.96R FOG
PELLSTON       SUNNY     67  52  58 N9        30.04R
TRAVERSE CITY  MOSUNNY   65  54  67 N13       30.02S
LUDINGTON      CLOUDY    65  57  73 N6        30.02S
$$
MIZ007>008-015-241500-
EASTERN UPPER MICHIGAN

CITY           SKY/WX    TMP DP  RH WIND       PRES   REMARKS
KINROSS        SUNNY     64  53  67 N10       30.05R
MACKINAC ISLAN SUNNY     65  55  70 N8        30.04R
NEWBERRY       SUNNY     61  58  91 NW8       30.07R
S. S. MARIE    SUNNY     67  50  54 N6        30.04R
$$
MIZ004>006-011>014-085-241500-
CENTRAL UPPER MICHIGAN

CITY           SKY/WX    TMP DP  RH WIND       PRES   REMARKS
MANISTIQUE     SUNNY     64  54  71 N10G18    30.07S
ESCANABA       SUNNY     64  55  72 NW7       30.09R
MENOMINEE      SUNNY     63  52  67 NE6       30.10R
SAWYER-GWINN   SUNNY     61  54  77 NE3       30.11S
$$
MIZ001>003-009>011-084-241500-
WESTERN UPPER MICHIGAN

CITY           SKY/WX    TMP DP  RH WIND       PRES   REMARKS
IRON MOUNTAIN  SUNNY     63  51  65 N6        30.10R
HOUGHTON       SUNNY     62  52  69 NW9       30.10S
COPPER HARBOR    N/A     56  50  80 N10       30.09R
IRONWOOD       SUNNY     61  53  75 S5        30.12S
$$

ABBREVIATIONS USED IN REMARKS
   TC - TEMPERATURE IN CELSIUS
  WCI - WIND CHILL INDEX
   HX - HEAT INDEX
  VSB - VISIBILITY





USA.gov is the U.S. government's official web portal to all federal, state and local government web resources and services.